Lapse_Rate
7.2 6.2 5.4 4.2 4.6 5.3 6.0 5.9 6.0 6.1 6.5 6.3 5.8 5.4 4.7 4.1 3.3 3.3 3.8 4.0 4.6 4.4 4.2 4.3 4.3 4.2 4.2 4.3 4.3 4.4 4.4 4.6 4.7
4.4 5.4 4.3 4.3 4.7 5.4 5.9 6.2 6.2 6.3 6.4 5.9 5.2 4.5 3.5 3.0 2.7 2.8 3.5 4.2 4.5 4.3 4.3 4.3 4.3 4.3 4.3 4.3 4.4 4.5 4.6 4.7 4.8
4.8 4.7 4.6 4.8 5.1 5.6 5.9 6.0 5.9 5.9 6.0 5.3 4.4 3.8 3.3 2.9 2.5 2.9 3.6 4.3 4.5 4.4 4.3 4.2 4.3 4.5 4.5 4.5 4.5 4.7 4.7 4.8 4.8
4.8 5.7 5.9 5.5 5.2 5.4 5.3 5.3 5.7 5.9 5.1 4.6 4.3 4.2 3.6 2.8 2.7 2.9 3.5 4.2 4.3 4.3 4.2 4.3 4.3 4.4 4.4 4.5 4.5 4.7 4.8 4.8 5.0
5.8 5.5 5.9 5.3 5.0 4.9 4.7 5.0 5.4 5.3 4.6 4.0 3.9 3.9 3.6 3.0 2.9 3.1 3.9 4.3 4.3 4.2 4.1 4.1 4.2 4.2 4.4 4.4 4.4 4.7 4.8 4.9 5.0
6.5 5.5 4.4 5.0 4.7 4.4 4.5 4.7 4.8 5.1 4.8 4.1 4.2 3.8 3.2 3.2 3.2 3.6 4.2 4.4 4.3 4.2 4.2 4.1 4.2 4.2 4.3 4.3 4.3 4.4 4.5 4.6 4.7
5.3 4.0 3.9 3.8 3.9 4.0 4.2 4.4 4.7 5.1 4.6 4.1 4.2 3.6 3.4 3.4 3.3 3.9 4.4 4.6 4.5 4.3 4.2 4.1 4.1 4.2 4.2 4.1 4.2 4.3 4.4 4.4 4.5
3.0 2.8 3.4 3.1 3.3 3.1 3.5 3.7 4.0 4.4 4.4 4.0 4.0 3.5 3.3 3.5 3.7 4.2 4.5 4.8 4.6 4.4 4.4 4.3 4.2 4.2 4.1 4.0 4.1 4.1 4.1 4.2 4.2
1.5 1.5 2.2 2.5 2.6 2.1 2.7 2.9 3.5 3.9 4.3 4.5 3.7 3.7 3.2 3.2 3.6 4.2 4.4 4.7 4.8 4.7 4.5 4.5 4.4 4.5 4.4 4.4 4.1 4.0 4.1 4.2 4.3
1.1 1.2 1.4 1.9 2.1 2.4 2.2 2.5 2.8 3.3 3.8 4.5 4.5 3.8 3.5 3.5 3.4 3.8 4.3 4.6 4.7 4.9 4.8 4.7 4.8 4.7 4.5 4.5 4.3 4.3 4.4 4.3 4.3
1.3 0.8 1.1 1.3 1.9 2.4 2.5 2.2 2.5 2.9 3.9 4.2 4.8 4.6 4.3 4.0 3.5 3.5 4.1 4.4 4.6 4.9 5.1 5.0 5.0 4.9 4.8 4.6 4.3 4.4 4.7 4.7 5.0
2.6 1.7 1.0 1.6 2.4 3.1 3.1 3.3 3.8 3.2 4.2 4.0 4.6 4.9 4.4 4.1 3.5 3.6 3.8 4.2 4.5 4.8 5.2 5.3 5.4 5.2 5.2 5.0 4.9 4.9 5.0 5.1 5.2
3.4 2.8 2.5 2.9 3.2 3.5 3.1 2.7 2.5 2.7 2.9 3.0 3.0 3.4 3.9 3.8 3.6 3.2 3.3 3.8 4.3 4.9 5.4 5.6 5.7 5.8 5.7 5.3 4.9 5.3 5.3 5.5 5.7
4.3 4.3 4.4 4.6 4.0 3.4 3.5 3.1 3.6 3.3 3.0 3.1 2.8 2.4 2.1 3.3 3.7 3.1 3.1 3.3 3.9 4.4 5.2 5.6 5.7 5.8 5.9 6.6 7.2 6.9 6.0 5.7 5.8
4.5 4.0 4.4 4.7 3.9 3.1 3.3 4.0 3.1 3.5 3.5 4.6 4.0 2.5 2.1 2.5 2.1 2.6 3.4 3.4 3.6 4.1 4.3 4.9 5.4 5.7 5.7 6.2 6.8 7.5 7.4 6.6 6.3
4.4 4.2 4.0 4.0 3.6 3.1 3.4 3.5 3.7 3.2 2.4 3.3 3.7 3.2 2.4 2.3 1.8 2.9 2.9 3.0 3.7 3.6 4.0 4.2 4.7 5.1 5.5 5.6 6.2 6.7 6.9 7.1 6.5
4.3 4.1 3.6 3.3 3.2 3.4 3.5 3.9 3.4 3.8 2.9 4.0 3.4 4.3 3.4 1.6 1.5 1.2 1.9 2.0 3.8 3.4 3.8 4.0 4.2 4.3 4.5 4.8 5.1 5.3 6.3 6.6 7.0
4.6 3.8 3.3 3.4 3.7 3.9 3.3 3.3 3.8 3.7 2.8 3.6 4.3 3.4 2.9 2.3 1.8 1.5 1.4 2.5 2.0 3.0 3.5 3.4 3.3 3.5 3.7 3.8 4.0 4.1 4.9 5.1 5.8
4.3 4.8 2.4 3.2 4.2 4.2 4.4 3.9 3.7 4.0 3.8 3.3 3.5 3.1 3.6 4.1 4.5 2.6 1.4 1.5 2.0 1.0 1.6 1.9 1.9 2.1 3.1 2.9 3.1 3.3 3.6 3.9 5.2
3.7 3.6 1.8 3.8 4.5 4.3 4.3 3.5 4.4 4.6 4.3 3.2 3.0 3.1 2.9 3.3 4.4 4.1 2.9 1.7 0.5 0.5 0.8 1.0 1.3 1.5 2.3 2.0 2.4 2.3 3.0 4.2 5.0
Wind_Speed
23 23 21 20 20 21 20 18 17 17 15 19 20 19 18 20 20 16 14 15 16 17 17 17 18 18 18 19 19 19 19 19 19
22 22 21 20 19 19 20 18 17 17 22 23 20 18 19 20 17 15 14 15 16 17 17 17 17 17 18 18 18 18 18 19 18
23 21 21 21 20 20 20 17 16 17 19 21 20 19 19 18 16 14 13 15 15 16 16 16 16 16 17 17 17 17 18 17 17
22 19 20 22 19 19 18 16 14 17 22 20 19 21 20 17 14 12 13 14 15 15 15 15 15 15 15 15 16 16 16 16 16
19 22 20 18 20 19 16 14 13 15 20 20 18 18 17 16 14 12 12 13 14 13 14 13 13 14 14 14 15 14 14 15 15
20 22 20 18 20 18 16 12 13 13 15 16 16 16 15 15 13 11 12 12 13 12 12 12 12 12 12 12 13 13 13 13 13
16 20 20 18 18 17 14 11 12 11 10 11 14 15 13 15 13 12 11 11 11 11 11 10 11 11 11 11 11 11 12 11 12
16 14 14 16 17 14 12 10 8 7 7 9 11 14 12 14 13 13 12 11 10 10 9 10 10 10 10 10 10 10 10 10 10
12 12 13 12 12 12 11 9 7 5 4 1 6 17 13 13 13 13 13 11 10 10 9 8 8 9 8 8 9 9 8 8 8
11 12 14 14 14 12 10 9 7 6 6 6 5 12 13 13 13 13 13 12 11 9 9 8 8 8 8 7 7 7 7 7 7
11 10 9 11 14 14 12 10 8 7 4 3 8 11 14 13 12 12 14 13 12 11 9 9 9 8 7 7 7 7 6 6 5
14 11 8 12 16 14 10 7 6 4 4 3 5 6 10 13 14 14 14 14 14 13 11 10 9 9 8 7 7 7 7 5 6
14 9 8 14 14 12 7 4 3 3 3 2 3 4 6 9 12 15 14 15 15 15 14 13 12 10 10 8 8 9 8 7 6
14 11 11 14 10 7 6 2 3 2 2 3 3 3 3 7 9 12 14 15 16 17 18 16 16 15 13 12 12 14 12 11 10
15 11 11 13 6 4 4 3 2 3 3 2 3 3 4 6 7 8 11 15 17 18 18 18 18 17 17 16 15 14 14 17 17
14 8 10 11 6 6 6 3 4 2 3 2 2 3 5 5 4 9 8 9 14 17 18 17 18 18 19 18 19 18 18 14 19
14 10 5 6 4 6 6 4 2 3 4 3 2 2 3 3 5 3 4 6 8 10 16 16 16 17 16 17 19 19 19 19 15
7 10 8 6 4 5 5 5 6 4 4 5 3 1 4 2 1 3 4 4 2 5 7 10 10 10 10 6 8 11 16 14 14
9 7 9 6 5 5 5 5 4 4 5 1 4 2 2 2 2 2 2 1 2 3 4 8 8 6 4 2 2 3 5 8 11
7 8 5 4 2 3 5 4 4 4 3 3 2 3 1 2 2 3 2 2 2 2 4 6 5 3 3 2 2 4 7 10 12
Wind_Direction
114 114 117 117 120 119 119 114 99 82 97 117 107 101 96 92 89 85 83 87 89 87 86 87 87 86 87 86 84 81 79 77 75
123 125 125 125 125 125 122 113 100 89 106 112 109 105 101 96 90 85 86 91 93 92 92 91 89 91 89 88 86 84 84 80 78
131 134 136 132 129 130 126 118 105 93 105 110 110 107 102 99 94 90 88 93 93 93 93 92 92 92 90 90 89 88 85 82 81
136 137 140 132 133 131 127 121 108 95 99 112 112 112 112 107 101 93 93 96 96 96 95 95 95 93 92 92 90 88 87 86 81
133 120 121 127 128 128 124 122 113 107 100 103 115 118 117 112 106 102 101 101 100 100 100 100 98 98 96 95 92 89 87 85 84
128 128 122 120 128 127 129 130 129 125 116 110 131 129 128 123 117 112 111 109 108 107 105 105 104 103 101 97 96 96 93 92 87
138 129 131 126 128 132 137 144 145 140 128 114 133 139 142 134 131 127 123 118 117 115 115 113 112 111 109 108 106 102 97 93 89
137 128 131 134 139 138 148 156 163 161 147 136 138 156 156 148 143 142 136 131 128 126 129 127 127 127 124 119 114 109 105 102 98
141 142 149 148 152 148 162 177 186 194 186 146 139 164 168 162 156 156 152 148 144 144 144 144 143 141 134 129 123 119 115 110 104
156 162 165 168 167 170 176 182 199 236 260 239 179 172 176 172 171 170 168 164 161 163 163 161 160 154 147 145 137 132 131 127 124
169 168 178 181 182 185 185 188 199 227 220 212 184 168 180 182 184 184 183 182 179 180 181 180 180 174 166 164 156 155 155 143 138
169 170 175 191 194 195 197 216 228 199 189 179 196 191 172 189 197 197 195 195 196 195 196 197 196 192 189 184 178 181 178 169 163
164 168 184 189 191 194 187 186 184 211 194 200 214 209 212 198 202 205 205 204 206 209 212 206 207 208 207 209 204 208 199 192 191
169 175 191 183 183 185 177 176 160 172 210 227 233 240 219 226 203 205 212 215 214 215 218 218 214 214 217 230 227 219 211 206 210
175 176 173 168 161 169 166 156 164 166 191 234 246 252 240 222 225 218 213 216 216 221 224 223 224 222 223 235 246 249 232 212 210
164 163 159 171 165 173 171 149 169 186 164 119 305 272 245 245 233 234 224 215 216 218 224 224 227 227 230 236 245 254 261 242 225
167 161 167 173 165 169 171 158 148 192 185 149 101 297 312 275 240 231 240 229 218 214 219 216 227 228 230 242 250 253 258 270 268
155 160 157 173 180 188 184 169 169 193 211 205 155 161 244 322 327 230 240 254 221 239 203 205 217 219 226 244 258 259 258 267 274
169 176 137 177 199 193 194 187 172 161 200 215 231 196 168 203 319 342 29 326 189 164 155 150 146 140 154 176 179 291 300 290 279
150 166 165 225 184 216 188 185 233 213 198 166 145 200 202 192 188 262 260 22 19 74 120 127 118 108 224 160 282 324 312 300 292